357  
SXUS52 KCHS 170427  
OSOCHS  
 
MARINE OBSERVATIONS  
NATIONAL WEATHER SERVICE CHARLESTON SC  
1200 AM EDT WED JUL 17 2019  
   
..DOWNTOWN CHARLESTON AND HARBOR
 
 
 
CITY SKY/WX TMP DP RH WIND PRES REMARKS  
WATERFRONT PRK N/A 85 79 82 S5 29.96S HX 98  
   
..LAKE MOULTRIE
 
 
 
CITY SKY/WX TMP DP RH WIND PRES REMARKS  
PINOPOLIS N/A 82 79 89 VRB3 30.05R HX 93  
   
..LAKE AND SUPPLEMENTAL COASTAL OBSERVATIONS
 
 
 
STATION/POSITION TIME TEMP WIND PRES WAVE SWELL  
AIR SEA DIR/SP/G HT/PER HT/PER/DIR  
(UTC) (F) (DEG/KT/KT) (MB) (FT/S) (FT/S/D)  
FORT PULASKI 0342 84 87 180/ 2/ 4 1020.3R  
SAPELO ISLAND 0400 83 190/ 2 1020.0  
WINYAH BAY 0345 83 210/ 3 1019.0S  
LAKE MURRAY 0420 88 200/ 6/ 8 1018.3S  
ACE BASIN NERRS 0345 85 CALM 1020.0R  
 
   
..C-MAN AND BUOY OBSERVATIONS
 
 
 
STATION/POSITION TIME TEMP WIND PRES WAVE SWELL  
AIR SEA DIR/SP/G HT/PER HT/PER/DIR  
(UTC) (F) (DEG/KT/KT) (MB) (FT/S) (FT/S/D)  
BUOY 41004 0410 85 86 190/ 10/ 12 1019.6  
BUOY 41008 0350 84 85 230/ 8/ 8 1020.0R 1/10 2/130/10  
FOLLY BEACH CMAN 0400 85 180/ 11/ 11 1020.2R  
PRITCHARDS ISLAN NOT AVBL  
CAPERS NS BUOY 0408 85 87 200/ 10/ 14 1019.6R  
FRIPP NS BUOY 0408 86 87 180/ 10/ 12 1019.7R  
5E ST. MARYS GA 0400 83 N/A 2/ 3  
 
 
STATION/POSITION TIME TEMP WIND PRES WAVE SWELL  
AIR SEA DIR/SP/G HT/PER HT/PER/DIR  
(UTC) (F) (DEG/KT/KT) (MB) (FT/S) (FT/S/D)  
FRYING PAN BUOY 0410 85 85 190/ 8/ 8 1019.7  
BUOY 41025 0410 85 85 190/ 10/ 12 1019.2  
CAPE LOOKOUT NC 0400 83 220/ 7/ 8 1019.8R  
BUOY 41002 0410 83 84 210/ 6/ 8 1021.3  
BUOY 41010 0410 85 86 150/ 8/ 10 N/A  
ST AUGUSTINE FL 0400 82 77 210/ 6/ 7 1020.5R  
 

 
 
 
CLICK HERE TO GO TO PREVIOUS BULLETINS.

The Nexlab SC Page
The Nexlab GA Page Main Text Page